Regional Weather Roundup
Issued by NWS Cleveland, OH

Home | Current Version | Previous Version | Graphics & Text | Print | Product List | Glossary On
Versions: 1 2 3 4 5 6 7 8 9 10 11 12 13 14 15 16 17 18 19 20 21 22 23 24 25 26 27 28 29 30 31 32 33 34 35 36 37 38 39 40 41 42 43 44 45 46 47 48 49 50
000
ASUS41 KCLE 272302
RWRCLE
OHIO REGIONAL WEATHER ROUNDUP
NATIONAL WEATHER SERVICE CLEVELAND, OH
600 PM EST THU NOV 27 2014

NOTE: "FAIR" INDICATES FEW OR NO CLOUDS BELOW 12,000 FEET WITH NO
SIGNIFICANT WEATHER AND/OR OBSTRUCTIONS TO VISIBILITY.

OHZ001>008-015>018-024>027-034-035-043-044-280000-
   NORTHWEST OHIO

CITY           SKY/WX    TMP DP  RH WIND       PRES   REMARKS
DEFIANCE       MOCLDY    31  22  69 NW14G22   30.26R WCI  21
FINDLAY        CLOUDY    32  26  78 W18       30.23R WCI  20
TOLEDO EXPRESS MOCLDY    29  26  89 NW8       30.23R WCI  21
TOLEDO EXEC    LGT SNOW  32  27  81 NW18      30.23R WCI  20
LIMA           CLOUDY    31  24  75 W18G25    30.26R WCI  19
$$

OHZ009>014-019>023-028>033-038-089-280000-
   NORTHEAST OHIO

CITY           SKY/WX    TMP DP  RH WIND       PRES   REMARKS
CLE-HOPKINS    LGT SNOW  30  26  85 W13       30.22R FOG     WCI  20
CLE-LAKEFRONT  LGT SNOW  34  28  79 W26G36    30.18R WCI  21
CUY CO. ARPT   SNOWSHWR  34  30  86 W14G23    30.17R WCI  24
LORAIN-ELYRIA  LGT SNOW  30  26  85 W7        30.21R FOG     WCI  23
ASHTABULA      LGT SNOW  30  26  85 W8        30.15R FOG     WCI  22
AKRON-CANTON   LGT SNOW  29  24  82 W8        30.18R FOG     WCI  21
WOOSTER        LGT SNOW  29  26  89 W9        30.20R FOG     WCI  20
MANSFIELD      CLOUDY    29  25  85 SW7       30.20R WCI  22
YOUNGSTOWN     LGT SNOW  29  23  78 W13G18    30.14S WCI  19
$$

OHZ042-051>053-060>062-070>072-077>081-280000-
  SOUTHWEST OHIO

CITY           SKY/WX    TMP DP  RH WIND       PRES   REMARKS
CINC-COVINGTON CLOUDY    31  21  66 W12       30.34R WCI  22
CINC-LUNKEN    CLOUDY    32  23  69 W12       30.37R WCI  23
HAMILTON       CLOUDY    32  21  64 NW9       30.36R WCI  24
DAYTON         CLOUDY    30  21  69 W17G25    30.32R WCI  18
WRIGHT-PAT AFB CLOUDY    30  21  69 W15       30.31R WCI  19
DAYTON GENERAL CLOUDY    31  20  63 W16G23    30.31R WCI  20
WILMINGTON     LGT SNOW  30  23  75 NW10      30.30R WCI  21
$$

OHZ036-037-039>041-045>050-054>059-063>069-073>076-082>088-280000-
  CENTRAL AND SOUTHEAST OHIO

CITY           SKY/WX    TMP DP  RH WIND       PRES   REMARKS
COLUMBUS       CLOUDY    32  24  72 W13       30.26R WCI  22
OSU AIRPORT    CLOUDY    32  24  72 W13       30.26R WCI  22
BOLTON FIELD   FLURRIES  30  27  86 W5        30.27R WCI  25
RICKENBACK AFB NOT AVBL
NEWARK         CLOUDY    32  23  69 W8        30.25R WCI  25
MARION         LGT SNOW  31  26  82 W8        30.23R WCI  23
LANCASTER      LGT SNOW  32  24  72 W13G18    30.27R WCI  22
ZANESVILLE     CLOUDY    30  21  69 W7        30.24R WCI  23
NEW PHILLY     LGT SNOW  31  25  78 W5        30.22R WCI  26
$$


USA.gov is the U.S. government's official web portal to all federal, state and local government web resources and services.